Regional Weather Roundup
Issued by NWS Albany, NY

Home | Current Version | Previous Version | Text Only | Print | Product List | Glossary On
Versions: 1 2 3 4 5 6 7 8 9 10 11 12 13 14 15 16 17 18 19 20 21 22 23 24 25 26 27 28 29 30 31 32 33 34 35 36 37 38 39 40 41 42 43 44 45 46 47 48 49 50
000
ASUS41 KALY 240110
RWRALY

NEW YORK STATE HOURLY WEATHER ROUNDUP
NATIONAL WEATHER SERVICE ALBANY NY
900 PM EDT SAT MAY 23 2015

NOTE: "FAIR" INDICATES FEW OR NO CLOUDS BELOW 12,000 FEET WITH NO
SIGNIFICANT WEATHER AND/OR NO OBSTRUCTIONS TO VISIBILITY.

NYZ032-033-038>043-046>054-057>066-NYZ062>081-240200-
EAST


CITY           SKY/WX    TMP DP  RH WIND       PRES   REMARKS
ALBANY         CLEAR     54  31  41 CALM      30.30S
GLENS FALLS    CLEAR     55  31  39 S7        30.26
POUGHKEEPSIE   CLEAR     62  29  28 SW5       30.30S
NEWBURGH       CLEAR     59  34  38 CALM      30.33S
MONTGOMERY     CLEAR     49  40  71 CALM      30.32R
WHITE PLAINS   CLEAR     53  42  66 S5        30.33R
ISLIP          PTCLDY    54  42  64 SW8       30.34S
NEW YORK CITY  PTCLDY    59  42  53 S10       30.33S
CENTRAL PARK   CLEAR     60  40  47 VRB5      30.36S
$$

NYZ005>009-017-018-044>046-055-056-240200-
CENTRAL


CITY           SKY/WX    TMP DP  RH WIND       PRES   REMARKS
FULTON         CLEAR     50  37  61 VRB3      30.27F
SYRACUSE       PTCLDY    56  36  47 S3        30.27F
ROME           CLEAR     51  38  60 E3        30.29F
ELMIRA         CLEAR     55  36  48 E6        30.30R
BINGHAMTON     CLEAR     60  27  28 W3        30.31S
MONTICELLO     CLEAR     54  30  40 SW6       30.34S
$$

NYZ026>034-041>043-240200-
NORTH


CITY           SKY/WX    TMP DP  RH WIND       PRES   REMARKS
WATERTOWN      PTCLDY    54  28  36 S8        30.23F
FORT DRUM      NOT AVBL
MASSENA        PTCLDY    54  26  34 SW15      30.17F
SARANAC LAKE   PTCLDY    48  22  35 SW9       30.20
PLATTSBURGH    MOCLDY    56  25  30 S5        30.18F
$$

NYZ001>004-010>016-019>021-240200-
WEST


CITY           SKY/WX    TMP DP  RH WIND       PRES   REMARKS
NIAGARA FALLS  MOCLDY    55  27  34 SW10      30.28S
BUFFALO        PTCLDY    57  24  28 SW9       30.29F
DUNKIRK        PTCLDY    54  35  48 S6        30.31F
JAMESTOWN      CLEAR     57  28  33 W7        30.34F
WELLSVILLE     PTCLDY    57  28  33 NW6       30.35R
ROCHESTER      PTCLDY    58  19  22 SW8       30.28F
PENN YAN       CLEAR     51  33  50 CALM      30.30F
$$

             KEY
       WCI = WIND CHILL INDEX
       VSB = VISIBILITY
       HX  = HEAT INDEX
$$



USA.gov is the U.S. government's official web portal to all federal, state and local government web resources and services.